Regional Weather Roundup
Issued by NWS

Home | Current Version | Previous Version | Graphics & Text | Print | Product List | Glossary On
Versions: 1 2 3 4 5 6 7 8 9 10 11 12 13 14 15 16 17 18 19 20 21 22 23 24 25 26 27 28 29 30 31 32 33 34 35 36 37 38 39 40 41 42 43 44 45 46 47 48 49 50
000
ASUS43 KLOT 210206
RWRIL

ILLINOIS REGIONAL WEATHER ROUNDUP
NATIONAL WEATHER SERVICE CHICAGO/ROMEOVILLE IL
900 PM CDT WED AUG 20 2014

NOTE: "FAIR" INDICATES FEW OR NO CLOUDS BELOW 12,000 FEET WITH NO
SIGNIFICANT WEATHER AND/OR OBSTRUCTIONS TO VISIBILITY.

* THESE STATIONS ARE NOT UNDER NWS QUALITY CONTROL. THEY ALSO MAY NOT
  REPORT WEATHER SUCH AS PRECIPITATION OR FOG.

ILZ001-002-007-009-015-016-024-210300-
NORTHWEST ILLINOIS

CITY           SKY/WX    TMP DP  RH WIND       PRES   REMARKS
MOLINE         PTCLDY    72  68  87 SE3       29.88F
STERLING*      MOCLDY    72  66  83 S3        29.90F
SAVANNA*       CLOUDY    73  67  83 CALM      29.91R
$$

ILZ003-004-008-010-011-017-018-210300-
NORTH CENTRAL ILLINOIS

CITY           SKY/WX    TMP DP  RH WIND       PRES   REMARKS
ROCKFORD       MOCLDY    75  68  78 CALM      29.91F
FREEPORT*      MOCLDY    73  69  89 CALM      29.94R
ROCHELLE*      PTCLDY    70  66  88 S3        29.92F
DE KALB*       PTCLDY    71  65  81 W5        29.94S
PERU*          MOCLDY    72  67  84 N5        29.93R
$$

ILZ005-006-012>014-019>023-210300-
NORTHEAST ILLINOIS

CITY           SKY/WX    TMP DP  RH WIND       PRES   REMARKS
CHICAGO-OHARE  PTCLDY    78  67  68 W10       29.91R HX  80
CHICAGO-MIDWAY PTCLDY    80  71  74 SW13      29.91R HX  84
AURORA         CLEAR     72  66  81 W5        29.94R
LANSING*       CLEAR     76  70  81 SW12      29.93R
JOLIET*        CLEAR     73  65  75 W5        29.94R
WAUKEGAN       MOCLDY    72  68  87 NE3       29.90R
DUPAGE AIRPORT PTCLDY    75  69  81 W12       29.93R
KANKAKEE*      PTCLDY    69  67  94 CALM      29.95R
WHEELING       PTCLDY    81  67  62 SW9       29.93R HX  83
MORRIS*        CLEAR     70  67  90 NW5       29.93R
ROMEOVILLE*    CLEAR     73  65  77 W8        29.94R
NORTHERLY ISL    N/A     80  68  66 W8          N/A  HX  83
$$

LMZ740>746-210300-
SOUTHERN LAKE MICHIGAN

STATION/POSITION SKY/WX   TEMP    WIND        PRES    VSBY  WAVE
                          AIR SEA DIR/SP/G                  HT/PER
                          (F)     (DEG/KT/KT) (MB)    (MI)  (FT/S)
SOUTHERN BUOY              69 68   70/  8/ 10 1012.6R         0
WAUKEGAN HARBOR            72      10/  4/  6   N/A
HARRISON CRIB              80     240/ 10/ 14   N/A
BURNHAM HARBOR             80     220/  5/  9   N/A
CALUMET HARBOR             80     230/  4/  7 1011.6R
MICHIGAN CITY              78     170/  7/  8   N/A
MICHIGAN CITY 6N           75 72  200/  6/  8   N/A           1
ST. JOSEPH                 75 71  110/  4/  6   N/A           1
$$

ILZ025>027-034>036-040-047-049-050-058-095>099-210300-
WEST-CENTRAL ILLINOIS

CITY           SKY/WX    TMP DP  RH WIND       PRES   REMARKS
QUINCY         CLEAR     80  76  87 SE8       29.91R HX  86
GALESBURG*     CLEAR     73  70  91 CALM      29.90R
MACOMB*        CLEAR     71  71  98 S6        29.93R
JACKSONVILLE*  CLEAR     78  72  82 S7        29.95R HX  80
PITTSFIELD*    CLEAR     77  73  85 S8        29.95R
$$

ILZ028>032-037-038-041>044-048-051>054-059>061-210300-
CENTRAL ILLINOIS

CITY           SKY/WX    TMP DP  RH WIND       PRES   REMARKS
PONTIAC        MOCLDY    72  72 100 CALM      29.93R
DECATUR        CLEAR     73  70  90 S7        29.97R
PEORIA         PTCLDY    76  71  85 SE3       29.92R
LACON*         PTCLDY    72  70  92 E3        29.91R
LINCOLN*       CLEAR     73  70  91 CALM      29.92R
SPRINGFIELD    CLEAR     75  71  87 S7        29.95R
TAYLORVILLE    CLEAR     72  70  94 SE3       29.97R
$$

ILZ033-039-045-046-055>057-062-063-210300-
EAST-CENTRAL ILLINOIS

CITY           SKY/WX    TMP DP  RH WIND       PRES   REMARKS
CHAMPAIGN      PTCLDY    73  70  90 SW7       29.96R
DANVILLE*      RAIN      70  69  95 S5        29.93R
RANTOUL*       PTCLDY    73  68  83 SW5       29.94S
MATTOON        CLEAR     73  69  87 S7        29.97R
PARIS*         PTCLDY    69  69 100 S3        29.98R
$$

ILZ079-100>102-210300-
SOUTHWEST ILLINOIS

CITY           SKY/WX    TMP DP  RH WIND       PRES   REMARKS
ALTON          TSTM      77  77 100 W14       30.01R
BELLEVILLE     PTCLDY    77  74  89 E8        29.95R
CAHOKIA*       TSTM      75  69  81 VRB6G45   29.97R
SPARTA*        PTCLDY    77  72  83 SE9       29.99R
$$

ILZ064>066-069>071-074>076-080>082-084>086-088>090-092>094-210300-
SOUTH-CENTRAL ILLINOIS

CITY           SKY/WX    TMP DP  RH WIND       PRES   REMARKS
CARBONDALE     PTCLDY    78  74  87 SE6       29.99R HX  81
CAIRO*         PTCLDY    83  75  77 SE7       30.00R HX  90
MARION         CLEAR     81  75  83 E7        30.01R HX  86
MT. VERNON     PTCLDY    75  68  78 CALM      30.01R
CENTRALIA*     PTCLDY    75  68  79 SE6       29.99R
SALEM*         CLEAR     77  73  85 SE3       30.00R
$$

ILZ067-068-072-073-078-083-087-091-210300-
SOUTHEAST ILLINOIS

CITY           SKY/WX    TMP DP  RH WIND       PRES   REMARKS
LAWRENCEVILLE  CLEAR     73  70  90 S5        30.00R
FLORA*         CLEAR     72  70  93 S7        30.01R
FAIRFIELD*     CLEAR     75  73  94 CALM      30.01R
HARRISBURG*    CLOUDY    79  74  86 CALM      30.02R HX  82
ROBINSON*      CLEAR     71  70  96 CALM      30.01R
CARMI*         PTCLDY    75  73  94 CALM      30.01R
$$

ABBREVIATIONS USED IN REMARKS
   TC - TEMPERATURE IN CELSIUS
  WCI - WIND CHILL INDEX
   HX - HEAT INDEX
  VSB - VISIBILITY
$$



USA.gov is the U.S. government's official web portal to all federal, state and local government web resources and services.